Regional Weather Roundup
Issued by NWS Wakefield, VA

Home | Current Version | Previous Version | Text Only | Print | Product List | Glossary Off
Versions: 1 2 3 4 5 6 7 8 9 10 11 12 13 14 15 16 17 18 19 20 21 22 23 24 25 26 27

000
ASUS41 KAKQ 210415
RWRAKQ

REGIONAL WEATHER ROUNDUP
NATIONAL WEATHER SERVICE WAKEFIELD VA
1100 PM EST MON FEB 20 2017

Note: "fair" indicates few or no clouds below 12,000 feet with no
significant weather and/or obstructions to visibility. * = Denotes
station may not report precipitation (e.g., rain,snow,etc.),
thunder or fog.

VAZ042-051-052>054-056-210500-
NORTHERN VIRGINIA

CITY           SKY/WX    TMP DP  RH WIND       PRES   REMARKS
WASH NATIONAL  PTCLDY    50  30  46 NE8       30.30R
DULLES         CLOUDY    46  28  49 CALM      30.30R
FORT BELVOIR   PTCLDY    44  31  61 CALM      30.30R
QUANTICO       PTCLDY    45  38  76 NW5       30.32R
FREDERICKSBRG* CLOUDY    46  36  68 CALM      30.30R
STAFFORD*      MOCLDY    42  32  68 CALM      30.35R
WARRENTON      PTCLDY    46  30  54 E5        30.29S
CULPEPER*      CLOUDY    43  35  73 CALM      30.31R
MANASSAS*      PTCLDY    40  33  76 CALM      30.31R
LEESBURG*      CLOUDY    50  34  53 MISG      30.31S
WINCHESTER     CLOUDY    41  30  65 CALM      30.29R
FRONT ROYAL*   CLOUDY    52  32  46 NE6       30.27S
LURAY*         PTCLDY    48  37  66 N3        30.26R
$$

VAZ048-049-060>072-079>083-210500-
CENTRAL AND SOUTH CENTRAL VIRGINIA

CITY           SKY/WX    TMP DP  RH WIND       PRES   REMARKS
RICHMOND       CLOUDY    50  37  61 NE3       30.28R
CHESTERFIELD*  FAIR      50  27  40 E5        30.29R
PETERSBURG*    CLOUDY    39  34  84 CALM      30.29R
HANOVER        CLOUDY    46  34  62 CALM      30.30R
TAPPAHANNOCK*  CLOUDY    43  22  42 CALM      30.30R
QUINTON*       FAIR      46  37  72 W3        30.28R
CHARLOTTSVILLE CLOUDY    55  36  48 E5        30.28R
GORDONSVILLE*  CLOUDY    43  37  78 CALM      30.28S
ORANGE*        PTCLDY    43  34  70 CALM      30.30S
LOUISA*        MOCLDY    48  37  66 CALM      30.27S
BUMPASS*       FAIR      47  35  61 CALM      30.28R
FARMVILLE*     CLOUDY    53  40  62 E6        30.25R
CREWE*         FAIR      48  39  70 CALM      30.26S
FORT PICKETT*  FAIR      47  32  54 E6        30.27R
CHASE CITY*    FAIR      55  36  49 E6        30.24R
CLARKSVILLE*   FAIR      52  41  66 E6        30.23R
SOUTH HILL*    CLOUDY    48  39  70 CALM      30.31R
LAWRENCEVILLE* FAIR      50  34  55 CALM      30.26R
EMPORIA*       CLOUDY    43  34  70 CALM      30.28R
$$

VAZ088>098-210500-
SOUTHEAST VIRGINIA

CITY           SKY/WX    TMP DP  RH WIND       PRES   REMARKS
NORFOLK        CLEAR     48  36  63 E6        30.27R
VIRGINIA BEACH PTCLDY    46  36  68 E7        30.26R
NORFOLK NAVAL  PTCLDY    48  35  60 E6        30.28R
WEST POINT*    PTCLDY    40  35  83 CALM      30.30R
SALUDA*        FAIR      39  38  93 CALM      30.28S
NEWPORT NEWS   CLOUDY    44  36  73 E5        30.28R
LANGLEY AFB    CLOUDY    47  38  71 E5        30.27R
FORT EUSTIS    CLEAR     44  34  69 CALM      30.25R
WILLIAMSBURG*  CLOUDY    45  39  81 CALM      30.29R
HR EXEC AP*    FAIR      39  30  70 CALM      30.26S
FRANKLIN*      CLOUDY    46  34  62 CALM      30.28R
US460-WAKEFLD  CLOUDY    43  36  76 CALM      30.28R
$$

VAZ020-022-025-037-045-210500-
WEST CENTRAL AND SOUTHWEST VIRGINIA

CITY           SKY/WX    TMP DP  RH WIND       PRES   REMARKS
STAUNTON*      PTCLDY    41  34  76 CALM      30.27S
WAYNESBORO*    PTCLDY    53  34  48 S6        30.25S
HOT SPRINGS VA CLOUDY    50  27  40 S9        30.26S
LYNCHBURG      CLOUDY    50  34  54 CALM      30.25R
DANVILLE       PTCLDY    49  41  74 E3        30.21S
SOUTH BOSTON*  FAIR      47  40  75 CALM      30.23R
MARTINSVILLE   CLOUDY    48  38  70 CALM      30.24R
ROANOKE        MOCLDY    57  34  41 CALM      30.24R
BLACKSBURG     MOCLDY    53  36  51 SE5       30.26R
DUBLIN*        CLOUDY    51  34  51 CALM      30.24S
MARION*        PTCLDY    53  33  46 NE8       30.23S
HILLSVILLE*    CLOUDY    54  37  54 CALM      30.22R
RICHLANDS*     FAIR      57  29  35 SE8       30.17F
WISE*          CLOUDY    59  28  31 CALM      30.18S
ABINGDON*      CLOUDY    52  35  50 CALM      30.17S
$$

MDZ021>025-VAZ099-100-210500-
SOUTHERN MARYLAND AND THE DELMARVA PENINSULA

CITY           SKY/WX    TMP DP  RH WIND       PRES   REMARKS
PATUXENT RIVER CLEAR     40  34  79 CALM      30.29R
BAY BRIDGE APT CLEAR     48  28  46 NE6       30.33R
LEONARDTOWN    CLEAR     45  32  61 CALM      30.31R
DOVER          CLEAR     40  29  65 N8        30.32R
GEORGETOWN     CLEAR     37  31  78 CALM      30.32R
EASTON         CLEAR     43  29  57 E6        30.35R
CAMBRIDGE      NOT AVBL
SALISBURY      CLEAR     36  33  89 CALM      30.30R
OCEAN CITY     CLEAR     37  33  85 CALM      30.31R
WALLOPS ISLAND CLEAR     42  38  85 NE3       30.30S
ACCOMACK*      CLEAR     42  37  84 CALM      30.29R
$$

NCZ012>017-030>032-210500-
NORTH CENTRAL AND EASTERN NORTH CAROLINA

CITY           SKY/WX    TMP DP  RH WIND       PRES   REMARKS
ROANOKE RAPIDS FAIR      50  41  71 CALM      30.26R
RALEIGH        MOCLDY    52  40  63 CALM      30.22S
ELIZABETH CITY CLOUDY    46  39  76 E6        30.26S
AHOSKIE*         N/A     47  39  74 CALM      30.27R
EDENTON*       CLOUDY    47  42  81 CALM      30.27R
CURRITUCK*     CLOUDY    49  39  67 E5        30.27S
KILL DEVIL HLS NOT AVBL
MANTEO         CLOUDY    48  45  88 E9        30.25S
CAPE HATTERAS  CLEAR     54  45  71 NE6       30.23S
TARBORO*       NOT AVBL
GOLDSBORO      CLOUDY    52  42  70 E6        30.22R
WASHINGTON     PTCLDY    48  37  65 NE5       30.25R
GREENVILLE     PTCLDY    52  39  62 E5        30.25R
NEW BERN       PTCLDY    51  44  77 E6        30.24S
WILMINGTON     PTCLDY    56  49  77 E7        30.21S
$$

VAZ048-210500-
ELSEWHERE

CITY           SKY/WX    TMP DP  RH WIND       PRES   REMARKS
HARRISBURG PA  PTCLDY    41  22  46 CALM      30.32R
BALTIMORE      PTCLDY    48  27  44 NE7       30.31R
ANNAPOLIS      CLEAR     51  27  39 NE8       30.31R
ANDREWS AFB    PTCLDY    48  27  44 NE9       30.28S
PHILADELPHIA   PTCLDY    44  12  27 NE10      30.35R
HENDERSON NC   PTCLDY    50  35  55 CALM      30.23S
GREENSBORO     CLOUDY    56  41  57 CALM      30.20S
ROCKY MOUNT    PTCLDY    50  43  77 CALM      30.25R
$$

VAZ100-210500-
MARINE

STATION/POSITION TIME  TEMP    WIND        PRES    WAVE   SWELL
                       AIR SEA DIR/SP/G            HT/PER HT/PER
                 (UTC) (F)     (DEG/KT/KT) (MB)    (FT/S) (FT/S)
CAPE MAY NJ      0348   43 41   70/  7/ 10 1026.5R
LEWES DE         0348   43 43   90/  3/  3 1026.5R
OCEAN-CITY-INLET 0348   45 45  100/  2/  3 1026.6R
WACHAPREAGUE VA  0348   44 52   30/  3/  4 1025.6R
THOMAS POINT MD  0400   51 43   50/ 14/ 14   N/A
GOOSES REEF MD   0400   47 43   90/  6/  8 1026.5
COVE POINT MD    0348   49      20/  4/  5 1026.5R
SOLOMONS ISLAND  0348   44 44   10/  1/  2   N/A
BISHOPS HEAD MD  0348   47 48   50/ 11/ 12 1025.9R
PINEY POINT MD   0342           80/  5/  6   N/A
POTOMAC MD       0400   44 44   50/  4/  6 1024.7    0
CAMBRIDGE MD     0348   48 44   50/  6/  7 1025.6R
LEWISETTA VA     0348   46 46   70/  6/  7 1025.1S
RAPPAHANNOCK LGT 0342           80/  8/  9 1025.8R
YORK RVR RNG VA  0348   46     110/  5/  6 1024.5R
YORKTOWN VA      0348   48 47  120/  5/  5 1024.9R
JAMESTOWN VA     0400   48 50   80/  2/  4   N/A     0
DOMINION TERM VA 0348   50     100/  5/  6 1025.0R
KIPTOPEKE VA     0348      47  100/  4/  5   N/A
CHES BAY BRIDGE  0348   48 47  100/  8/  9 1024.8R
CAPE HENRY VA    0348   48      80/  7/  9   N/A
WILLOUBY STN VA  0348   49     100/  6/  7 1025.8R
S CRANEY ISL VA  0348   49     120/  2/  5 1024.8R
CAPE HENRY BUOY  0342      47                N/A     2/ 5
OFFSHORE WE BUOY 0351      47                N/A     2/ 5
64NM E OF VA BCH 0350   53 53   60/ 17/ 19 1024.0F   3/ 5   2/ 7
DUCK PIER NC     0348   49 49   60/  9/ 10 1024.0R
44100 DUCK FRF   0335      48                N/A     2/ 5
44056 DUCK FRF   0330      49                N/A     2/ 5
OREGON INLET NC  0348           30/  6/  7   N/A
HATTERAS NC      0348   54 57   40/  5/  8 1023.2S
DIAMOND SHLS NC  0350   60 75   50/ 19/ 25 1023.0F   5/ 8   2/15
CAPE LOOKOUT NC  0400   58      50/ 16/ 17 1023.2R
$$




USA.gov is the U.S. government's official web portal to all federal, state and local government web resources and services.